Flag for Cuba Weather past 2 weeks in Santa Clara, Cuba

Now
88 °F

Passing clouds.


Feels Like: 96 °F
Forecast: N/A
Wind: 16 mph from Southwest

Location: Cienfuegos - Las Villas

Current Time: Apr 27, 2015 at 4:54:15 PM

Latest Report: Apr 27, 2015 at 3:50 PM


Visibility: 6 mi

Pressure: 29.80 "Hg

Humidity: 62%

Dew point: 73 °F

Location of Santa ClaraLocation

Historic Weather in Santa Clara — Graph

°F

Santa Clara temperature yesterday

Maximum temperature yesterday: 90 °F (at 1:50 PM)
Minimum temperature yesterday: 73 °F (at 4:58 AM)
Average temperature yesterday: 82 °F

Past Weeks' High & Low Weather Summary

 TemperatureHumidityPressure
High93 °F (Apr 24, 11:50 AM)100% (Apr 16, 1:58 AM)30.12 "Hg (Apr 16, 1:58 AM)
Low70 °F (Apr 16, 5:58 AM)44% (Apr 14, 12:52 PM)29.80 "Hg (Apr 27, 5:58 AM)
Average81 °F76%29.98 "Hg
* Reported Apr 12 3:50 PM — Apr 27 3:50 PM, Santa Clara, Weather by CustomWeather, © 2015

Note: Actual official high and low records may vary slightly from our data, if they occured in-between our weather recording intervals... More about our weather records

Advertising

Santa Clara weather history for previous 24 hours

 ConditionsComfort  
Time TempWeatherWind HumidityBarometerVisibility
3:50 PM
Mon, Apr 27
88 °FPassing clouds.16 mph62%29.80 "Hg6 mi
2:53 PM90 °FPassing clouds.16 mph63%29.86 "Hg6 mi
1:51 PM90 °FPassing clouds.13 mph63%29.86 "Hg6 mi
12:50 PM88 °FPassing clouds.14 mph66%29.89 "Hg6 mi
11:51 AM88 °FScattered clouds.13 mph62%29.89 "Hg6 mi
10:50 AM88 °FScattered clouds.10 mph62%29.89 "Hg6 mi
9:52 AM86 °FScattered clouds.9 mph70%29.89 "Hg6 mi
8:51 AM82 °FPassing clouds.7 mph79%29.86 "Hg5 mi
7:58 AM75 °FMild.5 mph94%29.86 "HgN/A
6:58 AM72 °FMild.6 mph100%29.83 "HgN/A
5:58 AM73 °FMild.5 mph94%29.80 "HgN/A
4:58 AM75 °FMild.6 mph94%29.83 "HgN/A
3:58 AM77 °FWarm.3 mph89%29.83 "HgN/A
2:58 AM77 °FWarm.3 mph94%29.83 "HgN/A
1:58 AM77 °FWarm.3 mph94%29.86 "HgN/A
12:58 AM79 °FWarm.5 mph89%29.86 "HgN/A
11:58 PM
Sun, Apr 26
82 °FWarm.6 mph79%29.89 "HgN/A
10:58 PM82 °FWarm.7 mph79%29.89 "HgN/A
9:58 PM82 °FWarm.8 mph79%29.89 "HgN/A
8:58 PM82 °FWarm.8 mph79%29.86 "HgN/A
7:51 PM82 °FScattered clouds.10 mph79%29.86 "HgN/A
6:51 PM84 °FPassing clouds.13 mph74%29.83 "HgN/A
5:50 PM88 °FPassing clouds.14 mph66%29.83 "HgN/A
4:50 PM88 °FPassing clouds.13 mph62%29.83 "HgN/A
Weather by CustomWeather, © 2015

See weather overviewHow to use our weather pages